Flag for U.S.A. Weather past 2 weeks in Wichita, Kansas, U.S.A.

Now
31 °F

Scattered clouds.


Feels Like: 21 °F
Forecast: 23 / 36 °F
Wind: 14 mph from North

Location: Wichita Mid-Continent Airport

Current Time: Dec 27, 2014 at 11:22:08 AM

Latest Report: Dec 27, 2014 at 10:53 AM


Visibility: 10 mi

Pressure: 30.37 "Hg

Humidity: 52%

Dew point: 15 °F

Location of WichitaLocation

Historic Weather in Wichita — Graph

°F

Wichita temperature yesterday

Maximum temperature yesterday: 46 °F (at 1:53 AM)
Minimum temperature yesterday: 34 °F (at 6:53 AM)
Average temperature yesterday: 38 °F

Past Weeks' High & Low Weather Summary

 TemperatureHumidityPressure
High59 °F (Dec 14, 11:53 AM)97% (Dec 13, 11:53 AM)30.37 "Hg (Dec 13, 11:53 AM)
Low27 °F (Dec 27, 7:53 AM)33% (Dec 25, 2:53 PM)29.52 "Hg (Dec 15, 12:53 AM)
Average41 °F77%29.99 "Hg
* Reported Dec 12 10:00 AM — Dec 27 9:53 AM, Wichita, Weather by CustomWeather, © 2014

Note: Actual official high and low records may vary slightly from our data, if they occured in-between our weather recording intervals... More about our weather records

Advertising

Wichita weather history for previous 24 hours

 ConditionsComfort  
Time TempWeatherWind HumidityBarometerVisibility
9:53 AM
Dec 27
28 °FBroken clouds.17 mph61%30.35 "Hg10 mi
8:53 AM27 °FPartly sunny.13 mph69%30.33 "Hg10 mi
7:53 AM27 °FOvercast.15 mph69%30.31 "Hg10 mi
6:53 AM28 °FPassing clouds.10 mph69%30.30 "Hg10 mi
5:53 AM28 °FPassing clouds.20 mph66%30.28 "Hg10 mi
4:53 AM29 °FMostly cloudy.17 mph69%30.24 "Hg10 mi
3:53 AM30 °FMostly cloudy.16 mph72%30.23 "Hg10 mi
2:53 AM31 °FMostly cloudy.17 mph76%30.20 "Hg10 mi
1:53 AM32 °FMostly cloudy.17 mph73%30.18 "Hg10 mi
12:53 AM33 °FPassing clouds.15 mph78%30.18 "Hg10 mi
11:53 PM
Dec 26
34 °FOvercast.14 mph76%30.17 "Hg10 mi
10:53 PM34 °FOvercast.18 mph79%30.14 "Hg10 mi
9:53 PM34 °FOvercast.14 mph82%30.12 "Hg10 mi
8:53 PM35 °FLow clouds.13 mph82%30.10 "Hg10 mi
7:53 PM35 °FLow clouds.13 mph82%30.07 "Hg10 mi
6:53 PM35 °FLow clouds.10 mph85%30.03 "Hg7 mi
5:53 PM36 °FLow clouds.12 mph82%29.98 "Hg9 mi
4:53 PM37 °FLow clouds.13 mph82%29.96 "Hg6 mi
3:53 PM38 °FMostly cloudy.15 mph79%29.94 "Hg6 mi
2:53 PM40 °FOvercast.10 mph73%29.93 "Hg10 mi
1:53 PM39 °FOvercast.12 mph76%29.92 "Hg10 mi
12:53 PM40 °FOvercast.10 mph73%29.93 "Hg10 mi
11:53 AM39 °FOvercast.12 mph76%29.95 "Hg9 mi
Weather by CustomWeather, © 2014

See weather overviewHow to use our weather pages